This is the latest recevied weather packets stored in our database for station/object K6GMW. If no packets are shown the sender has not sent any weather packets the latest 10 day(s).
| Time | Temp. | Humidity | Pressure | Rain* | Wind** | Luminosity | Snow |
|---|---|---|---|---|---|---|---|
| 1777575633 | 17.22° C | 82% | 1016.1 hPa | 0 mm | - | 106 W/m² | - |
| 1777575330 | 17.22° C | 81% | 1016.8 hPa | 0 mm | - | 62 W/m² | - |
| 1777575026 | 17.22° C | 81% | 1016.9 hPa | 0 mm | - | 57 W/m² | - |
| 1777574722 | 17.22° C | 80% | 1016.8 hPa | 0 mm | - | 62 W/m² | - |
| 1777574420 | 17.22° C | 79% | 1016.9 hPa | 0 mm | - | 67 W/m² | - |
| 1777574115 | 17.22° C | 81% | 1016.5 hPa | 0 mm | - | 93 W/m² | - |
| 1777573810 | 17.22° C | 80% | 1016.4 hPa | 0 mm | - | 125 W/m² | - |
| 1777573506 | 17.22° C | 80% | 1016.4 hPa | 0 mm | - | 208 W/m² | - |
| 1777573202 | 17.22° C | 81% | 1016.3 hPa | 0 mm | - | 195 W/m² | - |
| 1777572899 | 17.22° C | 81% | 1016.8 hPa | 0 mm | - | 126 W/m² | - |
| 1777572594 | 17.22° C | 82% | 1016.5 hPa | 0 mm | - | 125 W/m² | - |
| 1777572289 | 17.22° C | 80% | 1016.5 hPa | 0 mm | - | 210 W/m² | - |
| 1777571985 | 17.22° C | 80% | 1016.3 hPa | 0 mm | - | 134 W/m² | - |
| 1777571685 | 17.22° C | 80% | 1016.4 hPa | 0 mm | - | 85 W/m² | - |
| 1777571383 | 17.22° C | 80% | 1016.1 hPa | 0 mm | - | 105 W/m² | - |
| 1777571079 | 17.22° C | 80% | 1016.4 hPa | 0 mm | - | 153 W/m² | - |
| 1777570775 | 17.22° C | 80% | 1016.6 hPa | 0 mm | - | 163 W/m² | - |
| 1777570472 | 17.22° C | 81% | 1016.5 hPa | 0 mm | - | 159 W/m² | - |
| 1777570167 | 17.22° C | 80% | 1016.6 hPa | 0 mm | - | 143 W/m² | - |
| 1777569864 | 17.22° C | 81% | 1016.5 hPa | 0 mm | - | 174 W/m² | - |
| 1777569560 | 17.22° C | 80% | 1016.6 hPa | 0 mm | - | 130 W/m² | - |
| 1777569256 | 17.22° C | 80% | 1016.7 hPa | 0 mm | - | 141 W/m² | - |
| 1777568953 | 17.78° C | 79% | 1016.5 hPa | 0 mm | - | 137 W/m² | - |
| 1777568649 | 17.78° C | 80% | 1016.4 hPa | 0 mm | - | 187 W/m² | - |
| 1777568347 | 17.78° C | 79% | 1016.2 hPa | 0 mm | - | 203 W/m² | - |
* Rain latest hour (hover to see other rain measurements)
** Current wind speed in m/s (hover to see current wind gust speed)